FENGYUN 1C DEB, 41831

Orbit data source: Space-Track

FENGYUN 1C DEB, 41831 is space debris in SSO originally from a launch on Mon, 10 May 1999 UTC launched from the Taiyaun Space Center, China (TSC). Fengyun 1C debris stems from the Chinese weather satellite Fengyun-1C, which was intentionally destroyed by a Chinese anti-satellite missile in 2007. This event dramatically increased the amount of space debris, with thousands of trackable fragments posing hazards to satellites and human spaceflight. The Fengyun 1C debris cloud has become a focal point in discussions about space sustainability and the need for international regulations to prevent the creation of new debris.

Loading next visibility...
Identifier
41831, 1999-025EYJ
Orbit
SSO
Country
Flag of CNCN / PRC
Related business
Manufacturer
Unknown
Mission
Spacecraft
Bus & Motor
Unknown
Mass
Unknown
Launch date (UTC)
1999-05-10 (27 years ago)
Launch vehicle
Unknown
Launch site
Taiyaun Space Center, China (TSC)
Object type
Payload
Rocket body
Debris
Shape & HBR
Unknown shape, 0.1 m
Radar Cross Section
Small (<0.1 m²)

Expand to show TLE details & history
Last TLE update: 3 days ago

TLE from 3 days ago
0 FENGYUN 1C DEB
1 41831U 99025EYJ 26170.64120977  .00002201  00000-0  92941-3 0  9997
2 41831  98.7199 241.4813 0054350  36.2056 324.2783 14.25826581499502
Epoch: 2026-06-19T15:23Z
TLE epoch observation values (Epoch: 2026-06-19T15:23:20.524Z)
Latitude
-0.00002°
Longitude
102.77851°
Altitude
777.005 km
Speed
7.482 km/s
True Right ascension
16h 05m 55s
True Declination
0° 00' 00"
Sunlit
Object was in full shadow at epoch
Visualization orbit readout
Latitude
Unknown
Longitude
Unknown
Altitude
Unknown
Speed
Unknown
Apparent Right ascension
Unknown
Apparent Declination
Unknown
Sunlit
N/A
Visualization observer readout
Local Sidereal Time
21:28:46
Azimuth
Unknown
Elevation
Unknown
Doppler factor
Unknown
Orbital elements
Apogee altitude
841.895 km
Perigee altitude
763.837 km
Semi-major axis
7,181.003 km
Eccentricity
0.00544
Inclination
98.7199°
RAAN
241.4813°
Arg. of periapsis
36.2056°
True anomaly
323.91266°
Mean anomaly
324.2783°
Eccentric anomaly
324.09568°
Mean motion
3.56669 °/min
Orbital period
100.93 mins
BSTAR
0.00092941
Loading maneuver chart data...
Computing Atmospheric mass density...
Loading historical data...
Loading historical data...
Loading historical data...
Loading historical data...
Loading historical data...
Loading historical data...
Loading historical data...

Documentation

Showing up to 5 results
|